Regional Weather Roundup
Issued by NWS

Home | Current Version | Previous Version | Text Only | Print | Product List | Glossary On
Versions: 1 2 3 4 5 6 7 8 9 10 11 12 13 14 15 16 17 18 19 20 21 22 23 24 25 26 27 28 29 30 31 32 33 34 35 36 37 38 39 40 41 42 43 44 45 46 47 48 49 50
000
ASUS43 KDMX 260904
RWRIA

WEATHER ROUNDUP FOR IOWA
NATIONAL WEATHER SERVICE DES MOINES IA
  ISSUED BY NWS QUAD CITIES IA IL
400 AM CDT THU MAR 26 2015

NOTE: "FAIR" INDICATES FEW OR NO CLOUDS BELOW 12,000 FEET WITH NO
SIGNIFICANT WEATHER AND/OR OBSTRUCTIONS TO VISIBILITY.

* - THESE STATIONS ARE NOT NWS STATIONS...THUS NOT UNDER NWS
QUALITY CONTROL.  THEY ALSO DO NOT REPORT WEATHER SUCH
AS PRECIPITATION OR FOG.

IAZ001>003-012>014-020>022-031>034-043>046-261000-
   NORTHWEST IOWA

CITY           SKY/WX    TMP DP  RH WIND       PRES   REMARKS
CARROLL *      CLEAR     30  23  74 NW14      30.14F WCI  20
DENNISON *     CLEAR     28  25  86 CALM      30.15S
LE MARS *      CLEAR     25  21  86 CALM      30.20F
ORANGE CITY *  CLEAR     25  19  80 W3        30.18S
SIOUX CITY     CLEAR     25  19  78 NW7       30.20F WCI  17
SPENCER        PTCLDY    27  21  78 W12       30.15F WCI  17
$$

IAZ055>058-069>071-079>083-090>094-261000-
   SOUTHWEST IOWA

CITY           SKY/WX    TMP DP  RH WIND       PRES   REMARKS
ATLANTIC *     CLEAR     27  25  93 N8        30.16F WCI  18
AUDUBON *      CLEAR     27  21  80 NW3       30.15F
CLARINDA *     CLEAR     32  28  86 N7        30.17F WCI  26
COUNCIL BLFS * CLEAR     30  27  86 N7        30.18R WCI  23
CRESTON *      CLEAR     32  27  80 N10       30.13F WCI  24
HARLAN *       CLEAR     27  27 100 CALM      30.20S
LAMONI         CLEAR     31  26  82 N7        30.11F WCI  24
$$

IAZ047>049-059>061-072>074-084-261000-
   CENTRAL IOWA

CITY           SKY/WX    TMP DP  RH WIND       PRES   REMARKS
AMES           CLEAR     31  22  69 NW8       30.12S WCI  23
ANKENY *       FAIR      32  25  74 NW10      30.12F WCI  24
BOONE *        CLEAR     32  23  69 NW9       30.10F WCI  24
CHARITON *     CLEAR     32  27  80 NW12      30.10F WCI  23
DES MOINES     CLEAR     32  24  72 N10       30.12F WCI  24
GRINNELL *     SUNNY     30  26  83 NW12      30.09F WCI  21
KNOXVILLE *    CLEAR     32  25  74 NW13      30.09F WCI  22
MARSHALLTOWN   CLEAR     28  24  85 NW10      30.09S WCI  19
PELLA *        CLEAR     31  28  90 NW12      30.11F WCI  22
PERRY *        FAIR      27  24  89 NW6       30.14S WCI  20
$$

IAZ004>006-015-016-023>025-035-036-261000-
   NORTH CENTRAL IOWA

CITY           SKY/WX    TMP DP  RH WIND       PRES   REMARKS
ALGONA *       CLEAR     30  27  86 NW12      30.13S WCI  21
CLARION *      CLEAR     30  27  86 NW12      30.11S WCI  21
ESTHERVILLE    PTCLDY    27  22  81 NW9       30.13F WCI  18
FORT DODGE *   CLEAR     30  21  69 NW6       30.13F WCI  24
MASON CITY     CLEAR     30  23  75 NW13      30.09F WCI  20
FOREST CITY *  FAIR      30  25  80 NW13      30.08F WCI  20
IOWA FALLS *   FAIR      30  26  83 W10       30.10S WCI  21
$$

IAZ007>011-017>019-026>030-037>042-050>054-066-261000-
   NORTHEAST IOWA

CITY           SKY/WX    TMP DP  RH WIND       PRES   REMARKS
CEDAR RAPIDS   CLEAR     28  25  88 NW10      30.04F WCI  19
CHARLES CITY * CLEAR     30  25  80 NW12      30.05F WCI  21
CLINTON *      MOCLDY    28  25  86 W5        30.05F WCI  23
DECORAH *      CLEAR     28  23  80 NW5       30.01F WCI  23
DUBUQUE        PTCLDY    30  23  75 NW14      30.00F WCI  19
MONTICELLO *   CLEAR     30  27  86 NW7       30.03F WCI  23
OELWEIN *      CLEAR     28  27  93 NW12      30.05F WCI  18
WATERLOO       CLEAR     29  25  85 NW7       30.07F WCI  22
$$

IAZ064-065-067-068-078-261000-
   EAST CENTRAL IOWA

CITY           SKY/WX    TMP DP  RH WIND       PRES   REMARKS
DAVENPORT      MOCLDY    31  24  75 W6        30.04F WCI  25
IOWA CITY      CLEAR     30  25  81 NW6       30.07F WCI  24
MUSCATINE *    MOCLDY    32  27  80 NW5       30.06F WCI  27
QUAD CITIES    CLOUDY    34  24  67 NW7       30.04F WCI  28
$$

IAZ062-063-075>077-085>089-095>099-261000-
   SOUTHEAST IOWA

CITY           SKY/WX    TMP DP  RH WIND       PRES   REMARKS
BURLINGTON     CLOUDY    35  27  72 N8        30.05F WCI  29
FAIRFIELD *    PTCLDY    30  27  86 NW8       30.07F WCI  23
KEOKUK *       CLOUDY    36  28  75 N10G18    30.06F WCI  28
OTTUMWA        CLEAR     28  24  85 NW9       30.08F WCI  19
WASHINGTON *   PTCLDY    30  30 100 NW8       30.06F WCI  23
$$

ABBREVIATIONS USED IN REMARKS
   TC - TEMPERATURES IN CELSIUS
  WCI - WIND CHILL INDEX
   HX - HEAT INDEX
  VSB - VISIBILITY
$$



USA.gov is the U.S. government's official web portal to all federal, state and local government web resources and services.